Overview Statistics Trail Chart Weather Telemetry Raw packets
 

This is the latest recevied weather packets stored in our database for station/object W4SNA-3. If no packets are shown the sender has not sent any weather packets the latest 10 day(s).

<< 8 9 10 11 12 13 14 >>
Time Temp. Humidity Pressure Rain* Wind** Luminosity Snow
1788557496 27.78° C 72% 1018.3 hPa 0 mm - - -
1788557197 28.33° C 72% 1018.1 hPa 0 mm - - -
1788556889 28.33° C 72% 1018.1 hPa 0 mm - - -
1788556583 28.33° C 71% 1017.9 hPa 0 mm - - -
1788556283 28.89° C 70% 1017.9 hPa 0 mm - - -
1788555989 28.89° C 70% 1018 hPa 0 mm - - -
1788555682 28.89° C 71% 1017.9 hPa 0 mm - - -
1788555382 29.44° C 69% 1017.9 hPa 0 mm - - -
1788555082 29.44° C 65% 1018 hPa 0 mm - - -
1788554782 29.44° C 65% 1018.1 hPa 0 mm - - -
1788554489 29.44° C 66% 1017.9 hPa 0 mm - - -
1788554182 30° C 65% 1017.8 hPa 0 mm - - -
1788553882 30° C 68% 1017.8 hPa 0 mm - - -
1788553582 29.44° C 69% 1017.7 hPa 0 mm - - -
1788553282 29.44° C 70% 1018 hPa 0 mm - - -
1788552982 29.44° C 69% 1018 hPa 0 mm - - -
1788552682 29.44° C 69% 1017.8 hPa 0 mm - - -
1788552384 29.44° C 71% 1017.7 hPa 0 mm - - -
1788552089 30° C 70% 1017.8 hPa 0 mm - - -
1788551789 30° C 69% 1017.9 hPa 0 mm - - -
1788551482 30° C 69% 1018 hPa 0 mm - - -
1788551183 30.56° C 69% 1018.1 hPa 0 mm - - -
1788550883 30.56° C 68% 1018.1 hPa 0 mm - - -
1788550459 30.56° C 67% 1018.1 hPa 0 mm - - -
1788550168 30.56° C 67% 1018.2 hPa 0 mm - - -

* Rain latest hour (hover to see other rain measurements)
** Current wind speed in m/s (hover to see current wind gust speed)